Date String (YYYY-MM-DD hh:mm:ss) UTC,Instrument flags,Ambient pressure (hPa),Sample flow (lpm),Bypass flow (lpm),Sample temperature (°C),Ambient temperature (°C),ASC tube jacket temperature (°C),LED temperature (°C),Box temperature (°C),Sample RH (%),Span deviation,Mass concentration (μg/m³),Mass concentration (μg/m³),Mass concentration (μg/m³)
DateTimeUTC,F1_M11,P_M11,Q1_M11,Q2_M11,T1_M11,T2_M11,T3_M11,T4_M11,T5_M11,U1_M11,ZSPAN_M11,X0_M11,X2_M11,X1_M11
2023-04-07 01:00:00,,0834.1,5.00,0.00,23.5,22.3,00.0,31.7,25.0,06.8,0000.0,0011.53,0004.20,0003.27
2023-04-07 01:01:00,,0834.2,4.99,0.00,23.5,22.3,00.0,31.7,25.0,06.7,0000.0,0012.05,0004.25,0003.28
2023-04-07 01:02:00,,0834.1,4.99,0.00,23.5,22.3,00.0,31.7,25.1,06.7,0000.0,0011.81,0004.24,0003.30
2023-04-07 01:03:00,,0834.1,5.01,0.00,23.5,22.3,00.0,31.8,25.1,06.7,0000.0,0011.46,0004.20,0003.30
2023-04-07 01:04:00,,0834.2,5.01,0.00,23.5,22.3,00.0,31.8,25.1,06.6,0000.0,0011.33,0004.20,0003.31
2023-04-07 01:05:00,,0834.1,4.99,0.00,23.5,22.3,00.0,31.8,25.1,06.6,0000.0,0011.14,0004.22,0003.31
2023-04-07 01:06:00,,0834.1,5.00,0.00,23.5,22.3,00.0,31.8,25.1,06.6,0000.0,0010.36,0004.23,0003.31
2023-04-07 01:07:00,,0834.2,4.99,0.00,23.5,22.3,00.0,31.8,25.1,06.5,0000.0,0009.98,0004.23,0003.32
2023-04-07 01:08:00,,0834.2,5.00,0.00,23.6,22.3,00.0,31.8,25.1,06.5,0000.0,0009.88,0004.27,0003.32
2023-04-07 01:09:00,,0834.2,5.01,0.00,23.6,22.4,00.0,31.8,25.1,06.5,0000.0,0010.38,0004.29,0003.33
2023-04-07 01:10:00,,0834.2,5.01,0.00,23.6,22.4,00.0,31.8,25.1,06.6,0000.0,0010.27,0004.25,0003.34
2023-04-07 01:11:00,,0834.2,5.00,0.00,23.6,22.4,00.0,31.8,25.1,06.6,0000.0,0010.05,0004.19,0003.34
2023-04-07 01:12:00,,0834.3,4.99,0.00,23.6,22.4,00.0,31.8,25.1,06.6,0000.0,0009.39,0004.10,0003.32
2023-04-07 01:13:00,,0834.3,4.99,0.00,23.6,22.4,00.0,31.9,25.1,06.5,0000.0,0009.41,0004.11,0003.31
2023-04-07 01:14:00,,0834.2,5.00,0.00,23.6,22.4,00.0,31.9,25.1,06.6,0000.0,0009.59,0004.12,0003.30
2023-04-07 01:15:00,,0834.2,5.02,0.00,23.6,22.4,00.0,31.9,25.1,06.6,0000.0,0009.84,0004.18,0003.30
2023-04-07 01:16:00,,0834.3,5.00,0.00,23.6,22.4,00.0,31.9,25.2,06.5,0000.0,0009.98,0004.19,0003.30
2023-04-07 01:17:00,,0834.2,4.99,0.00,23.6,22.4,00.0,31.9,25.2,06.5,0000.0,0009.61,0004.14,0003.30
2023-04-07 01:18:00,,0834.2,4.99,0.00,23.6,22.4,00.0,31.9,25.2,06.4,0000.0,0009.52,0004.12,0003.30
2023-04-07 01:19:00,,0834.4,5.00,0.00,23.6,22.4,00.0,31.9,25.2,06.4,0000.0,0009.87,0004.08,0003.29
2023-04-07 01:20:00,,0834.2,5.01,0.00,23.7,22.4,00.0,31.9,25.2,06.4,0000.0,0009.74,0004.04,0003.28
2023-04-07 01:21:00,,0834.2,5.00,0.00,23.7,22.4,00.0,31.9,25.2,06.4,0000.0,0010.62,0004.04,0003.27
2023-04-07 01:22:00,,0834.2,5.01,0.00,23.7,22.4,00.0,31.9,25.2,06.4,0000.0,0010.85,0004.07,0003.27
2023-04-07 01:23:00,,0834.2,5.00,0.00,23.7,22.4,00.0,31.9,25.2,06.4,0000.0,0011.53,0004.12,0003.28
2023-04-07 01:24:00,,0834.3,4.99,0.00,23.7,22.4,00.0,32.0,25.2,06.4,0000.0,0011.91,0004.12,0003.29
2023-04-07 01:25:00,,0834.3,4.99,0.00,23.7,22.4,00.0,32.0,25.3,06.4,0000.0,0011.88,0004.13,0003.29
2023-04-07 01:26:00,,0834.3,5.00,0.00,23.7,22.4,00.0,32.0,25.3,06.4,0000.0,0011.82,0004.10,0003.29
2023-04-07 01:27:00,,0834.4,5.00,0.00,23.7,22.5,00.0,32.0,25.3,06.4,0000.0,0011.58,0004.06,0003.29
2023-04-07 01:28:00,,0834.3,5.00,0.00,23.7,22.4,00.0,32.0,25.3,06.4,0000.0,0011.53,0004.08,0003.29
2023-04-07 01:29:00,,0834.5,5.00,0.00,23.7,22.5,00.0,32.0,25.3,06.4,0000.0,0011.44,0004.09,0003.30
2023-04-07 01:30:00,,0834.5,5.00,0.00,23.7,22.5,00.0,32.0,25.3,06.4,0000.0,0011.28,0004.13,0003.30
2023-04-07 01:31:00,,0834.6,5.00,0.00,23.7,22.5,00.0,32.0,25.3,06.4,0000.0,0010.78,0004.08,0003.31
2023-04-07 01:32:00,,0834.4,5.00,0.00,23.7,22.5,00.0,32.0,25.3,06.4,0000.0,0009.77,0004.09,0003.31
2023-04-07 01:33:00,,0834.3,5.00,0.00,23.8,22.5,00.0,32.0,25.3,06.4,0000.0,0009.63,0004.10,0003.32
2023-04-07 01:34:00,,0834.5,5.00,0.00,23.7,22.5,00.0,32.0,25.3,06.4,0000.0,0009.50,0004.08,0003.32
2023-04-07 01:35:00,,0834.3,5.00,0.00,23.8,22.5,00.0,32.0,25.3,06.3,0000.0,0009.16,0004.08,0003.32
2023-04-07 01:36:00,,0834.3,5.00,0.00,23.8,22.5,00.0,32.0,25.3,06.4,0000.0,0009.27,0004.08,0003.32
2023-04-07 01:37:00,,0834.4,4.99,0.00,23.8,22.5,00.0,32.1,25.3,06.4,0000.0,0009.30,0004.14,0003.34
2023-04-07 01:38:00,,0834.3,5.00,0.00,23.8,22.5,00.0,32.1,25.3,06.3,0000.0,0010.08,0004.16,0003.35
2023-04-07 01:39:00,,0834.3,5.00,0.00,23.8,22.5,00.0,32.1,25.3,06.3,0000.0,0010.08,0004.13,0003.35
2023-04-07 01:40:00,,0834.3,5.00,0.00,23.8,22.5,00.0,32.1,25.3,06.3,0000.0,0010.02,0004.11,0003.34
2023-04-07 01:41:00,,0834.4,5.00,0.00,23.8,22.5,00.0,32.1,25.3,06.3,0000.0,0009.84,0004.08,0003.34
2023-04-07 01:42:00,,0834.4,5.00,0.00,23.8,22.5,00.0,32.1,25.3,06.3,0000.0,0009.82,0004.10,0003.33
2023-04-07 01:43:00,,0834.4,5.00,0.00,23.8,22.5,00.0,32.1,25.3,06.3,0000.0,0010.12,0004.09,0003.34
2023-04-07 01:44:00,,0834.3,5.00,0.00,23.8,22.5,00.0,32.1,25.3,06.3,0000.0,0010.61,0004.08,0003.34
2023-04-07 01:45:00,,0834.4,5.00,0.00,23.8,22.5,00.0,32.1,25.3,06.3,0000.0,0011.03,0004.09,0003.34
2023-04-07 01:46:00,,0834.4,5.00,0.00,23.8,22.4,00.0,32.1,25.3,06.5,0000.0,0011.04,0004.08,0003.33
2023-04-07 01:47:00,,0834.4,5.00,0.00,23.8,22.3,00.0,32.1,25.3,06.7,0000.0,0011.29,0004.06,0003.33
2023-04-07 01:48:00,,0834.4,5.00,0.00,23.7,22.3,00.0,32.1,25.3,06.8,0000.0,0011.39,0004.02,0003.32
2023-04-07 01:49:00,,0834.3,4.99,0.00,23.7,22.2,00.0,32.1,25.3,06.9,0000.0,0011.79,0004.01,0003.30
2023-04-07 01:50:00,,0834.4,4.99,0.00,23.7,22.1,00.0,32.1,25.2,06.8,0000.0,0012.10,0004.05,0003.31
2023-04-07 01:51:00,,0834.4,5.00,0.00,23.7,22.1,00.0,32.1,25.2,06.7,0000.0,0012.24,0004.07,0003.32
2023-04-07 01:52:00,,0834.4,5.01,0.00,23.7,22.1,00.0,32.1,25.2,06.8,0000.0,0012.97,0004.09,0003.32
2023-04-07 01:53:00,,0834.4,5.00,0.00,23.7,22.0,00.0,32.1,25.2,06.8,0000.0,0013.19,0004.10,0003.33
2023-04-07 01:54:00,,0834.4,5.00,0.00,23.6,22.0,00.0,32.1,25.2,06.7,0000.0,0013.57,0004.11,0003.32
2023-04-07 01:55:00,,0834.5,4.99,0.00,23.6,22.0,00.0,32.1,25.1,07.2,0000.0,0013.16,0004.13,0003.30
2023-04-07 01:56:00,,0834.4,5.00,0.00,23.6,21.9,00.0,32.0,25.1,07.2,0000.0,0013.43,0004.15,0003.30
2023-04-07 01:57:00,,0834.4,5.00,0.00,23.6,21.9,00.0,32.0,25.0,07.1,0000.0,0013.28,0004.16,0003.29
2023-04-07 01:58:00,,0834.5,5.00,0.00,23.6,21.8,00.0,32.0,25.0,07.2,0000.0,0012.79,0004.15,0003.29
2023-04-07 01:59:00,,0834.5,5.00,0.00,23.5,21.8,00.0,32.0,25.0,07.4,0000.0,0012.16,0004.15,0003.28
